Time,TemperatureF,DewpointF,PressureIn,WindDirection,WindDirectionDegrees,WindSpeedMPH,WindSpeedGustMPH,Humidity,HourlyPrecipIn,Conditions,Clouds,dailyrainin,SoftwareType,DateUTC
2013-01-31 00:01:00,15.0,9.0,29.55,NE,52,7.0,14.0,78,0.00,,,0.13,,2013-01-31 06:01:00,
2013-01-31 08:02:00,11.0,5.0,29.74,NE,52,9.0,15.0,76,0.00,,,0.03,,2013-01-31 14:02:00,
2013-01-31 08:11:00,11.0,5.0,29.74,NE,52,9.0,15.0,76,0.00,,,0.03,,2013-01-31 14:11:00,
2013-01-31 08:22:00,11.0,4.0,29.74,NE,52,15.0,17.0,74,0.00,,,0.03,,2013-01-31 14:22:00,
2013-01-31 08:32:00,10.0,3.0,29.76,NE,52,7.0,10.0,72,0.00,,,0.03,,2013-01-31 14:32:00,
2013-01-31 08:42:00,10.0,3.0,29.76,NE,52,7.0,10.0,72,0.00,,,0.03,,2013-01-31 14:42:00,
2013-01-31 08:52:00,10.0,2.0,29.76,NE,52,9.0,12.0,70,0.00,,,0.03,,2013-01-31 14:52:00,
2013-01-31 09:03:00,10.0,2.0,29.78,NE,52,8.0,9.0,69,0.00,,,0.03,,2013-01-31 15:03:00,
2013-01-31 09:12:00,10.0,2.0,29.78,NE,52,8.0,9.0,69,0.00,,,0.03,,2013-01-31 15:12:00,
2013-01-31 09:22:00,10.0,2.0,29.78,NE,52,6.0,10.0,68,0.00,,,0.03,,2013-01-31 15:22:00,
2013-01-31 09:32:00,10.0,1.0,29.80,NE,52,7.0,13.0,66,0.00,,,0.03,,2013-01-31 15:32:00,
2013-01-31 09:42:00,10.0,1.0,29.80,NE,52,7.0,13.0,66,0.00,,,0.03,,2013-01-31 15:42:00,
2013-01-31 09:51:00,10.0,1.0,29.80,NE,52,7.0,13.0,65,0.00,,,0.03,,2013-01-31 15:51:00,
2013-01-31 10:03:00,11.0,2.0,29.80,NE,52,3.0,10.0,65,0.00,,,0.03,,2013-01-31 16:03:00,
2013-01-31 10:12:00,11.0,2.0,29.80,NE,52,3.0,10.0,65,0.00,,,0.03,,2013-01-31 16:12:00,
2013-01-31 10:22:00,11.0,1.0,29.80,NE,52,5.0,11.0,64,0.00,,,0.03,,2013-01-31 16:22:00,
2013-01-31 10:33:00,11.0,1.0,29.82,NE,52,3.0,10.0,63,0.00,,,0.03,,2013-01-31 16:33:00,
2013-01-31 10:42:00,11.0,1.0,29.82,NE,52,3.0,10.0,63,0.00,,,0.03,,2013-01-31 16:42:00,
2013-01-31 10:51:00,11.0,1.0,29.82,NE,52,6.0,10.0,62,0.00,,,0.03,,2013-01-31 16:51:00,
2013-01-31 11:02:00,11.0,0.0,29.83,NE,52,9.0,12.0,61,0.00,,,0.03,,2013-01-31 17:02:00,
2013-01-31 11:12:00,11.0,0.0,29.83,NE,52,9.0,12.0,61,0.00,,,0.03,,2013-01-31 17:12:00,
2013-01-31 11:23:00,12.0,1.0,29.83,NE,52,4.0,10.0,60,0.00,,,0.03,,2013-01-31 17:23:00,
2013-01-31 11:32:00,12.0,1.0,29.83,NE,52,5.0,10.0,60,0.00,,,0.03,,2013-01-31 17:32:00,
2013-01-31 11:43:00,12.0,1.0,29.83,NE,52,5.0,10.0,60,0.00,,,0.03,,2013-01-31 17:43:00,
2013-01-31 11:53:00,12.0,1.0,29.83,NE,52,3.0,5.0,60,0.00,,,0.03,,2013-01-31 17:53:00,
2013-01-31 12:03:00,11.0,0.0,29.83,NE,52,3.0,11.0,61,0.00,,,0.03,,2013-01-31 18:03:00,
2013-01-31 12:12:00,10.0,0.0,29.83,NE,52,12.0,18.0,62,0.00,,,0.03,,2013-01-31 18:12:00,
2013-01-31 12:22:00,10.0,0.0,29.83,NE,52,12.0,18.0,62,0.00,,,0.03,,2013-01-31 18:22:00,
2013-01-31 12:32:00,11.0,1.0,29.85,NE,52,9.0,10.0,62,0.00,,,0.02,,2013-01-31 18:32:00,
2013-01-31 12:43:00,11.0,1.0,29.85,NE,52,9.0,10.0,62,0.00,,,0.02,,2013-01-31 18:43:00,
2013-01-31 12:52:00,11.0,1.0,29.85,NE,52,5.0,10.0,64,0.00,,,0.02,,2013-01-31 18:52:00,
2013-01-31 13:02:00,10.0,0.0,29.85,NE,52,6.0,7.0,64,0.00,,,0.02,,2013-01-31 19:02:00,
2013-01-31 13:12:00,10.0,0.0,29.85,NE,52,6.0,7.0,64,0.00,,,0.02,,2013-01-31 19:12:00,
2013-01-31 13:22:00,11.0,1.0,29.85,NE,52,6.0,8.0,62,0.00,,,0.02,,2013-01-31 19:22:00,
2013-01-31 13:32:00,11.0,1.0,29.85,NE,52,4.0,10.0,62,0.00,,,0.02,,2013-01-31 19:32:00,
2013-01-31 13:42:00,11.0,1.0,29.85,NE,52,4.0,10.0,62,0.00,,,0.02,,2013-01-31 19:42:00,
2013-01-31 13:51:00,11.0,1.0,29.85,NE,52,5.0,8.0,64,0.00,,,0.02,,2013-01-31 19:51:00,
2013-01-31 14:02:00,10.0,3.0,29.87,NE,52,7.0,16.0,72,0.00,,,0.02,,2013-01-31 20:02:00,
2013-01-31 14:11:00,10.0,3.0,29.87,NE,52,7.0,16.0,72,0.00,,,0.02,,2013-01-31 20:11:00,
2013-01-31 14:21:00,10.0,3.0,29.87,NE,52,7.0,12.0,74,0.00,,,0.02,,2013-01-31 20:21:00,
2013-01-31 14:31:00,10.0,3.0,29.88,NE,52,3.0,5.0,72,0.00,,,0.02,,2013-01-31 20:31:00,
2013-01-31 14:42:00,10.0,2.0,29.88,NE,52,10.0,14.0,68,0.00,,,0.02,,2013-01-31 20:42:00,
2013-01-31 14:52:00,10.0,2.0,29.88,NE,52,10.0,14.0,68,0.00,,,0.02,,2013-01-31 20:52:00,
2013-01-31 15:02:00,10.0,1.0,29.89,NE,52,3.0,7.0,65,0.00,,,0.02,,2013-01-31 21:02:00,
2013-01-31 15:12:00,10.0,1.0,29.89,NE,52,8.0,11.0,67,0.00,,,0.02,,2013-01-31 21:12:00,
2013-01-31 15:21:00,10.0,1.0,29.89,NE,52,8.0,11.0,67,0.00,,,0.02,,2013-01-31 21:21:00,
2013-01-31 15:32:00,10.0,4.0,29.90,NE,52,5.0,5.0,75,0.00,,,0.02,,2013-01-31 21:32:00,
2013-01-31 15:42:00,10.0,4.0,29.90,NE,52,5.0,5.0,75,0.00,,,0.02,,2013-01-31 21:42:00,
2013-01-31 15:52:00,10.0,4.0,29.90,NE,52,6.0,7.0,77,0.00,,,0.02,,2013-01-31 21:52:00,
2013-01-31 16:03:00,10.0,3.0,29.91,NE,52,6.0,8.0,74,0.00,,,0.02,,2013-01-31 22:03:00,
2013-01-31 16:11:00,10.0,3.0,29.91,NE,52,6.0,8.0,74,0.00,,,0.02,,2013-01-31 22:11:00,
2013-01-31 16:22:00,10.0,3.0,29.91,NE,52,3.0,9.0,71,0.00,,,0.02,,2013-01-31 22:22:00,
2013-01-31 16:32:00,9.0,1.0,29.93,NE,52,3.0,10.0,68,0.00,,,0.02,,2013-01-31 22:32:00,
2013-01-31 16:42:00,9.0,1.0,29.93,NE,52,3.0,10.0,68,0.00,,,0.02,,2013-01-31 22:42:00,
2013-01-31 16:51:00,9.0,1.0,29.93,NE,52,8.0,9.0,68,0.00,,,0.02,,2013-01-31 22:51:00,
2013-01-31 17:02:00,9.0,1.0,29.94,NE,52,6.0,10.0,69,0.00,,,0.02,,2013-01-31 23:02:00,
2013-01-31 17:12:00,9.0,1.0,29.94,NE,52,6.0,10.0,69,0.00,,,0.02,,2013-01-31 23:12:00,
2013-01-31 17:22:00,9.0,1.0,29.94,NE,52,12.0,12.0,69,0.00,,,0.02,,2013-01-31 23:22:00,
2013-01-31 17:32:00,8.0,0.0,29.96,NE,52,3.0,9.0,70,0.00,,,0.02,,2013-01-31 23:32:00,
2013-01-31 17:42:00,8.0,0.0,29.96,NE,52,3.0,9.0,70,0.00,,,0.02,,2013-01-31 23:42:00,
2013-01-31 17:52:00,8.0,1.0,29.96,NE,52,4.0,7.0,71,0.00,,,0.02,,2013-01-31 23:52:00,
2013-01-31 18:01:00,8.0,1.0,29.98,NE,52,3.0,12.0,71,0.00,,,0.02,,2013-02-01 00:01:00,
2013-01-31 18:11:00,8.0,1.0,29.98,NE,52,3.0,12.0,71,0.00,,,0.02,,2013-02-01 00:11:00,
2013-01-31 18:22:00,7.0,0.0,29.98,NE,52,8.0,18.0,72,0.00,,,0.02,,2013-02-01 00:22:00,
2013-01-31 18:32:00,7.0,0.0,29.99,NE,52,8.0,11.0,72,0.00,,,0.02,,2013-02-01 00:32:00,
2013-01-31 18:42:00,7.0,0.0,29.99,NE,52,8.0,11.0,72,0.00,,,0.02,,2013-02-01 00:42:00,
2013-01-31 18:51:00,7.0,0.0,29.99,NE,52,4.0,7.0,71,0.00,,,0.02,,2013-02-01 00:51:00,
2013-01-31 19:01:00,7.0,-1.0,30.01,NE,52,5.0,10.0,70,0.00,,,0.02,,2013-02-01 01:01:00,
2013-01-31 19:11:00,7.0,0.0,30.01,NE,52,4.0,12.0,71,0.00,,,0.02,,2013-02-01 01:11:00,
2013-01-31 19:21:00,7.0,0.0,30.01,NE,52,4.0,12.0,71,0.00,,,0.02,,2013-02-01 01:21:00,
2013-01-31 19:32:00,7.0,-1.0,30.02,NE,52,9.0,11.0,70,0.00,,,0.02,,2013-02-01 01:32:00,
2013-01-31 19:42:00,7.0,-1.0,30.02,NE,52,9.0,11.0,70,0.00,,,0.02,,2013-02-01 01:42:00,
2013-01-31 19:52:00,6.0,-1.0,30.02,NE,52,8.0,8.0,71,0.00,,,0.02,,2013-02-01 01:52:00,
2013-01-31 20:02:00,6.0,-2.0,30.04,NE,52,10.0,15.0,70,0.00,,,0.02,,2013-02-01 02:02:00,
2013-01-31 20:11:00,6.0,-2.0,30.04,NE,52,10.0,15.0,70,0.00,,,0.02,,2013-02-01 02:11:00,
2013-01-31 20:21:00,6.0,-2.0,30.04,NE,52,8.0,12.0,69,0.00,,,0.02,,2013-02-01 02:21:00,
2013-01-31 20:31:00,5.0,-3.0,30.05,NE,52,4.0,16.0,68,0.00,,,0.02,,2013-02-01 02:31:00,
2013-01-31 20:41:00,5.0,-3.0,30.05,NE,52,4.0,16.0,68,0.00,,,0.02,,2013-02-01 02:41:00,
2013-01-31 20:52:00,5.0,-3.0,30.05,NE,52,10.0,17.0,68,0.00,,,0.02,,2013-02-01 02:52:00,
2013-01-31 21:02:00,5.0,-3.0,30.07,NE,52,3.0,12.0,68,0.00,,,0.02,,2013-02-01 03:02:00,
2013-01-31 21:12:00,5.0,-3.0,30.07,NE,52,3.0,12.0,68,0.00,,,0.02,,2013-02-01 03:12:00,
2013-01-31 21:21:00,4.0,-4.0,30.07,NE,52,6.0,11.0,69,0.00,,,0.02,,2013-02-01 03:21:00,
2013-01-31 21:32:00,4.0,-4.0,30.09,NE,52,4.0,10.0,69,0.00,,,0.02,,2013-02-01 03:32:00,
2013-01-31 21:41:00,4.0,-4.0,30.09,NE,52,4.0,10.0,69,0.00,,,0.02,,2013-02-01 03:41:00,
2013-01-31 21:51:00,4.0,-4.0,30.09,NE,52,7.0,10.0,69,0.00,,,0.02,,2013-02-01 03:51:00,
2013-01-31 22:02:00,4.0,-4.0,30.10,NE,52,6.0,11.0,68,0.00,,,0.02,,2013-02-01 04:02:00,
2013-01-31 22:11:00,3.0,-5.0,30.10,NE,52,8.0,9.0,67,0.00,,,0.02,,2013-02-01 04:11:00,
2013-01-31 22:21:00,3.0,-5.0,30.10,NE,52,8.0,9.0,67,0.00,,,0.02,,2013-02-01 04:21:00,
2013-01-31 22:32:00,3.0,-5.0,30.11,NE,52,3.0,8.0,67,0.00,,,0.02,,2013-02-01 04:32:00,
2013-01-31 22:41:00,3.0,-5.0,30.11,NE,52,3.0,8.0,67,0.00,,,0.02,,2013-02-01 04:41:00,
2013-01-31 22:51:00,3.0,-5.0,30.11,NE,52,4.0,9.0,67,0.00,,,0.02,,2013-02-01 04:51:00,
2013-01-31 23:03:00,2.0,-6.0,30.12,NE,52,5.0,10.0,67,0.00,,,0.02,,2013-02-01 05:03:00,
2013-01-31 23:11:00,2.0,-6.0,30.12,NE,52,5.0,10.0,67,0.00,,,0.02,,2013-02-01 05:11:00,
2013-01-31 23:22:00,2.0,-6.0,30.12,NE,52,7.0,9.0,68,0.00,,,0.02,,2013-02-01 05:22:00,
2013-01-31 23:32:00,2.0,-6.0,30.13,NE,52,5.0,11.0,68,0.00,,,0.02,,2013-02-01 05:32:00,
2013-01-31 23:41:00,2.0,-6.0,30.13,NE,52,5.0,11.0,68,0.00,,,0.02,,2013-02-01 05:41:00,
2013-01-31 23:52:00,2.0,-6.0,30.14,NE,52,5.0,7.0,68,0.00,,,0.01,,2013-02-01 05:52:00,